Flag for Brazil Weather past 2 weeks in Niterói, Rio de Janeiro, Brazil

Now
73 °F

Clear.


Feels Like: 75 °F
Forecast: 70 / 89 °F
Wind: 5 mph from Northwest

Location: Rio De Janeiro Airport

Current Time: Sep 1, 2015 at 1:03:17 AM

Latest Report: Sep 1, 2015 at 12:00 AM


Visibility: 10 mi

Pressure: 29.98 "Hg

Humidity: 74%

Dew point: 64 °F

Location of NiteróiLocation

Historic Weather in Niterói — Graph

°F

Niterói temperature yesterday

Maximum temperature yesterday: 90 °F (at 1:00 PM)
Minimum temperature yesterday: 66 °F (at 5:00 AM)
Average temperature yesterday: 76 °F

Past Weeks' High & Low Weather Summary

 TemperatureHumidityPressure
High90 °F (Aug 31, 1:00 PM)100% (Aug 21, 1:00 AM)30.24 "Hg (Aug 21, 1:00 AM)
Low64 °F (Aug 21, 1:00 AM)36% (Aug 31, 1:00 PM)29.80 "Hg (Aug 19, 3:00 PM)
Average72 °F77%30.05 "Hg
* Reported Aug 16 11:00 PM — Aug 31 11:00 PM, Niterói, Weather by CustomWeather, © 2015

Note: Actual official high and low records may vary slightly from our data, if they occured in-between our weather recording intervals... More about our weather records

Advertising

Niterói weather history for previous 24 hours

 ConditionsComfort  
Time TempWeatherWind HumidityBarometerVisibility
11:00 PM
Mon, Aug 31
73 °FClear.3 mph74%29.98 "Hg10 mi
10:00 PM72 °FClear.3 mph83%29.98 "Hg10 mi
9:00 PM73 °FClear.1 mph74%29.98 "Hg10 mi
8:00 PM75 °FClear.3 mph57%29.95 "Hg10 mi
7:00 PM77 °FClear.7 mph57%29.95 "Hg10 mi
6:00 PM79 °FClear.14 mph48%29.95 "Hg10 mi
5:00 PM82 °FClear.14 mph45%29.92 "Hg10 mi
4:00 PM82 °FSunny.12 mph48%29.92 "Hg10 mi
3:00 PM82 °FSunny.12 mph48%29.92 "Hg10 mi
2:00 PM84 °FSunny.13 mph55%29.95 "Hg10 mi
1:00 PM90 °FSunny.5 mph36%29.98 "Hg10 mi
12:00 PM86 °FSunny.6 mph49%30.01 "Hg10 mi
11:00 AM84 °FSunny.7 mph51%30.04 "Hg10 mi
10:00 AM81 °FSunny.8 mph54%30.07 "Hg10 mi
9:00 AM77 °FClear.5 mph69%30.07 "Hg5 mi
8:00 AM73 °FFog.6 mph89%30.04 "Hg3 mi
7:00 AM70 °FSunny.5 mph100%30.04 "Hg10 mi
6:00 AM66 °FSunny.3 mph100%30.01 "Hg10 mi
5:00 AM66 °FClear.8 mph100%30.01 "Hg10 mi
4:00 AM68 °FClear.7 mph94%29.98 "Hg10 mi
3:00 AM70 °FClear.6 mph88%30.01 "Hg10 mi
2:00 AM68 °FClear.2 mph94%30.01 "Hg10 mi
1:00 AM72 °FClear.1 mph83%30.04 "Hg10 mi
Weather by CustomWeather, © 2015

See weather overviewHow to use our weather pages